This demonstration page uses our WeatherBlox Daily Observations layout. Learn more.

Hourly Observations for January 27, 2016

Temp ( °F °C ) Dew Point ( °F °C ) Humidity (%) Winds ( mph kmh ) Pressure ( in mb ) Visibility ( mi km ) Precip ( " mm )
12:15 am 00:15 Clear 29 -1.8 20 -6.6 70 70 W 5 7 30.33 1027 10 16.0934 0 0
12:35 am 00:35 Clear 28 -2.2 19 -7 70 70 W 5 7 30.33 1027 10 16.0934 0 0
12:55 am 00:55 Clear 28 -2.5 19 -7 72 72 W 6 9 30.33 1027 10 16.0934 0 0
1:15 am 01:15 Clear 28 -2.1 20 -6.9 70 70 W 6 9 30.33 1027 10 16.0934 0 0
1:35 am 01:35 Clear 28 -2.4 19 -7 71 71 W 6 9 30.27 1025 10 16.0934 0 0
1:55 am 01:55 Clear 27 -3 19 -7.2 73 73 W 3 6 30.3 1026 10 16.0934 0 0
2:15 am 02:15 Clear 28 -2.5 19 -7.1 71 71 W 3 6 30.27 1025 10 16.0934 0 0
2:35 am 02:35 Clear 26 -3.2 19 -7 75 75 WSW 5 7 30.3 1026 10 16.0934 0 0
2:55 am 02:55 Clear 26 -3.3 19 -7.3 74 74 W 3 6 30.3 1026 10 16.0934 0 0
3:15 am 03:15 Clear 27 -2.6 20 -6.8 73 73 WSW 3 6 30.3 1026 10 16.0934 0 0
3:35 am 03:35 Clear 27 -2.6 19 -7.4 70 70 WSW 5 7 30.3 1026 10 16.0934 0 0
3:55 am 03:55 Clear 27 -2.7 19 -7.5 70 70 Calm 30.3 1026 10 16.0934 0 0
4:15 am 04:15 Clear 28 -2.2 19 -7.5 67 67 Calm 30.24 1024 10 16.0934 0 0
4:35 am 04:35 Clear 25 -3.9 18 -7.8 75 75 WSW 3 6 30.27 1025 10 16.0934 0 0
4:55 am 04:55 Clear 25 -4 18 -7.7 76 76 WSW 3 6 30.27 1025 10 16.0934 0 0
5:15 am 05:15 Clear 25 -3.8 18 -7.6 75 75 WSW 5 7 30.27 1025 10 16.0934 0 0
5:35 am 05:35 Clear 25 -3.7 19 -7.5 75 75 W 8 13 30.27 1025 10 16.0934 0 0
5:55 am 05:55 Clear 25 -4.1 18 -7.6 77 77 W 7 11 30.27 1025 10 16.0934 0 0
6:15 am 06:15 Clear 24 -4.3 18 -7.7 77 77 W 8 13 30.27 1025 10 16.0934 0 0
6:35 am 06:35 Clear 24 -4.6 18 -7.8 79 79 W 8 13 30.27 1025 10 16.0934 0 0
6:55 am 06:55 Clear 24 -4.7 18 -7.8 79 79 WSW 8 13 30.27 1025 10 16.0934 0 0
7:15 am 07:15 Clear 24 -4.5 18 -7.6 79 79 W 8 13 30.27 1025 10 16.0934 0 0
7:35 am 07:35 Clear 24 -4.5 18 -7.7 79 79 W 9 15 30.27 1025 10 16.0934 0 0
7:55 am 07:55 Sunny 24 -4.5 18 -7.8 78 78 W 7 11 30.27 1025 10 16.0934 0 0
8:15 am 08:15 Sunny 24 -4.5 18 -7.8 78 78 W 9 15 30.27 1025 10 16.0934 0 0
8:35 am 08:35 Sunny 25 -4 19 -7.3 78 78 W 8 13 30.27 1025 10 16.0934 0 0
8:55 am 08:55 Sunny 27 -2.6 20 -6.5 75 75 W 10 17 30.27 1025 10 16.0934 0 0
9:15 am 09:15 Sunny 28 -2 21 -6.1 74 74 W 10 17 30.24 1024 10 16.0934 0 0
9:35 am 09:35 Sunny 30 -1 21 -6 69 69 W 12 19 30.24 1024 10 16.0934 0 0
9:55 am 09:55 Sunny 32 0 23 -5.2 68 68 W 10 17 30.24 1024 10 16.0934 0 0
10:15 am 10:15 Sunny 33 0.5 23 -4.8 68 68 W 13 20 30.21 1023 10 16.0934 0 0
10:35 am 10:35 Sunny 35 1.8 25 -4.1 65 65 W 12 19 30.21 1023 10 16.0934 0 0
10:55 am 10:55 Sunny 35 1.9 25 -4.1 65 65 W 14 22 30.21 1023 10 16.0934 0 0
11:15 am 11:15 Sunny 37 2.8 26 -3.6 63 63 W 12 19 30.21 1023 10 16.0934 0 0
11:35 am 11:35 Sunny 37 3 26 -3.5 63 63 W 12 19 30.21 1023 10 16.0934 0 0
11:55 am 11:55 Sunny 39 4.1 27 -2.8 61 61 W 10 17 30.15 1021 10 16.0934 0 0
12:15 pm 12:15 Sunny 41 4.8 28 -2.3 60 60 W 12 19 30.15 1021 10 16.0934 0 0
12:35 pm 12:35 Sunny 44 6.5 29 -1.8 56 56 W 14 22 30.12 1020 10 16.0934 0 0
12:55 pm 12:55 Sunny 47 8.1 30 -1.3 52 52 W 13 20 30.12 1020 10 16.0934 0 0
1:15 pm 13:15 Sunny 49 9.4 28 -2 45 45 NW 14 22 30.09 1019 10 16.0934 0 0
1:35 pm 13:35 Sunny 50 9.8 30 -0.9 48 48 NW 14 22 30.06 1018 10 16.0934 0 0
1:55 pm 13:55 Sunny 49 9.6 31 -0.8 49 49 NW 12 19 30.06 1018 10 16.0934 0 0
2:15 pm 14:15 Sunny 50 10.1 31 -0.5 48 48 NW 13 20 30.06 1018 10 16.0934 0 0
2:35 pm 14:35 Sunny 51 10.6 31 -0.3 47 47 NW 13 20 30.03 1017 10 16.0934 0 0
2:55 pm 14:55 Sunny 53 11.5 32 0.1 46 46 NW 12 19 30.03 1017 10 16.0934 0 0
3:15 pm 15:15 Sunny 53 11.8 32 -0.2 44 44 NW 13 20 30.03 1017 10 16.0934 0 0
3:35 pm 15:35 Partly Cloudy 54 12 32 0.2 45 45 NW 12 19 30.03 1017 10 16.0934 0 0
3:55 pm 15:55 Partly Cloudy 52 11.1 33 0.5 48 48 NNW 9 15 30.03 1017 10 16.0934 0 0
4:15 pm 16:15 Sunny 52 10.9 33 0.8 50 50 NNW 8 13 30.06 1018 10 16.0934 0 0
4:35 pm 16:35 Sunny 51 10.5 34 1.1 52 52 NNW 7 11 30.06 1018 10 16.0934 0 0
4:55 pm 16:55 Sunny 50 10 34 1.3 55 55 NNW 3 6 30.06 1018 10 16.0934 0 0
5:15 pm 17:15 Sunny 48 9.1 34 1.2 58 58 NW 3 6 30.09 1019 10 16.0934 0 0
5:35 pm 17:35 Sunny 45 7 33 0.5 64 64 NW 6 9 30.09 1019 10 16.0934 0 0
5:55 pm 17:55 Clear 42 5.3 32 0 69 69 WNW 3 6 30.12 1020 10 16.0934 0 0
6:15 pm 18:15 Clear 42 5.3 32 -0.1 68 68 WNW 5 7 30.12 1020 10 16.0934 0 0
6:35 pm 18:35 Clear 41 5.1 31 -0.3 68 68 WNW 3 6 30.12 1020 10 16.0934 0 0
6:55 pm 18:55 Clear 37 3 30 -1.1 75 75 WNW 3 6 30.18 1022 10 16.0934 0 0
7:15 pm 19:15 Clear 38 3.4 29 -1.5 71 71 WNW 3 6 30.18 1022 10 16.0934 0 0
7:35 pm 19:35 Clear 37 2.5 28 -2.1 72 72 WNW 6 9 30.18 1022 10 16.0934 0 0
7:55 pm 19:55 Clear 36 2.1 28 -2.5 72 72 NW 7 11 30.18 1022 10 16.0934 0 0
8:15 pm 20:15 Clear 36 2.4 28 -2.3 71 71 WNW 7 11 30.18 1022 10 16.0934 0 0
8:35 pm 20:35 Clear 36 2.2 27 -2.6 71 71 WNW 6 9 30.18 1022 10 16.0934 0 0
8:55 pm 20:55 Clear 35 1.9 27 -2.7 72 72 WNW 6 9 30.18 1022 10 16.0934 0 0
9:15 pm 21:15 Clear 35 1.9 28 -2.5 73 73 WNW 5 7 30.18 1022 10 16.0934 0 0
9:35 pm 21:35 Clear 34 1 27 -2.9 75 75 WNW 3 6 30.18 1022 10 16.0934 0 0
9:55 pm 21:55 Clear 35 1.6 27 -2.8 73 73 W 8 13 30.18 1022 10 16.0934 0 0
10:15 pm 22:15 Partly Cloudy 37 2.5 27 -3 67 67 W 6 9 30.15 1021 10 16.0934 0 0
10:35 pm 22:35 Partly Cloudy 36 2.4 27 -3 68 68 W 6 9 30.15 1021 10 16.0934 0 0
10:55 pm 22:55 Partly Cloudy 37 2.8 27 -2.9 66 66 W 8 13 30.15 1021 10 16.0934 0 0
11:15 pm 23:15 Clear 37 2.7 27 -2.8 67 67 W 9 15 30.15 1021 10 16.0934 0 0
11:35 pm 23:35 Clear 37 3 28 -2.3 68 68 W 10 17 30.15 1021 10 16.0934 0 0
11:55 pm 23:55 Clear 38 3.5 28 -2 68 68 W 12 19 30.12 1020 10 16.0934 0 0

Powered by AerisWeather